• En Colombia
  • Lista de países
  • Para 7 días
  • Temperatura del agua
  • El tiempo en el mapa
  • Informadores
  • user-avatar
    Iniciar sesión

    Tiempo cada hora Elbasan

    Hoy, 6 Diciembre, Viernes

    Tiempo Temperatura Precipitaciones Viento Presión Humedad
    00:00 +10°C° 0 mm 1 mps 742 mmHg 72%
    01:00 +11°C° 0 mm 1 mps 742 mmHg 70%
    02:00 +11°C° 0 mm 1 mps 742 mmHg 71%
    03:00 +11°C° 0 mm 1 mps 742 mmHg 72%
    04:00 +10°C° 0 mm 0 mps 741 mmHg 72%
    05:00 +10°C° 0 mm 0 mps 741 mmHg 74%
    06:00 +10°C° 0 mm 0 mps 742 mmHg 75%
    07:00 +10°C° 0 mm 0 mps 742 mmHg 76%
    08:00 +11°C° 0 mm 0 mps 742 mmHg 74%
    09:00 +13°C° 0 mm 1 mps 742 mmHg 72%
    10:00 +14°C° 0 mm 1 mps 742 mmHg 70%
    11:00 +15°C° 0 mm 1 mps 741 mmHg 70%
    12:00 +15°C° 0 mm 1 mps 741 mmHg 70%
    13:00 +15°C° 0 mm 1 mps 740 mmHg 70%
    14:00 +15°C° 0 mm 1 mps 740 mmHg 74%
    15:00 +14°C° 0 mm 1 mps 740 mmHg 79%
    16:00 +13°C° 0 mm 0 mps 739 mmHg 83%
    17:00 +13°C° 0.2 mm 0 mps 739 mmHg 85%
    18:00 +13°C° 0.2 mm 1 mps 739 mmHg 87%
    19:00 +13°C° 0.2 mm 1 mps 739 mmHg 89%
    20:00 +13°C° 2.6 mm 1 mps 739 mmHg 91%
    21:00 +13°C° 2.6 mm 1 mps 739 mmHg 93%
    22:00 +13°C° 2.6 mm 1 mps 739 mmHg 95%
    23:00 +13°C° 1.2 mm 1 mps 738 mmHg 94%

    Mañana, 7 Diciembre, Sábado

    Tiempo Temperatura Precipitaciones Viento Presión Humedad
    00:00 +13°C° 1.2 mm 1 mps 738 mmHg 93%
    01:00 +13°C° 1.2 mm 1 mps 738 mmHg 92%
    02:00 +13°C° 1.2 mm 1 mps 737 mmHg 92%
    03:00 +13°C° 1.2 mm 1 mps 737 mmHg 93%
    04:00 +13°C° 1.2 mm 1 mps 736 mmHg 93%
    05:00 +13°C° 1.3 mm 1 mps 736 mmHg 94%
    06:00 +13°C° 1.3 mm 1 mps 736 mmHg 95%
    07:00 +13°C° 1.3 mm 1 mps 737 mmHg 95%
    08:00 +13°C° 0.7 mm 1 mps 737 mmHg 92%
    09:00 +14°C° 0.7 mm 2 mps 737 mmHg 88%
    10:00 +15°C° 0.7 mm 2 mps 737 mmHg 84%
    11:00 +15°C° 0.5 mm 2 mps 736 mmHg 81%
    12:00 +15°C° 0.5 mm 2 mps 736 mmHg 77%
    13:00 +16°C° 0.5 mm 2 mps 736 mmHg 74%
    14:00 +15°C° 0.3 mm 2 mps 736 mmHg 78%
    15:00 +14°C° 0.3 mm 1 mps 736 mmHg 83%
    16:00 +13°C° 0.3 mm 1 mps 736 mmHg 87%
    17:00 +13°C° 0 mm 1 mps 736 mmHg 89%
    18:00 +12°C° 0 mm 1 mps 736 mmHg 90%
    19:00 +12°C° 0 mm 1 mps 736 mmHg 91%
    20:00 +11°C° 0 mm 1 mps 736 mmHg 91%
    21:00 +11°C° 0 mm 1 mps 736 mmHg 91%
    22:00 +11°C° 0 mm 1 mps 737 mmHg 92%
    23:00 +11°C° 0 mm 1 mps 736 mmHg 92%

    Pasado mañana, 8 Diciembre, Domingo

    Tiempo Temperatura Precipitaciones Viento Presión Humedad
    00:00 +11°C° 0 mm 1 mps 736 mmHg 92%
    01:00 +11°C° 0 mm 1 mps 736 mmHg 92%
    02:00 +11°C° 0.1 mm 1 mps 736 mmHg 91%
    03:00 +10°C° 0.1 mm 1 mps 736 mmHg 90%
    04:00 +10°C° 0.1 mm 1 mps 736 mmHg 90%
    05:00 +11°C° 0 mm 1 mps 736 mmHg 89%
    06:00 +11°C° 0 mm 1 mps 736 mmHg 88%
    07:00 +11°C° 0 mm 1 mps 737 mmHg 88%
    08:00 +12°C° 0 mm 1 mps 737 mmHg 84%
    09:00 +13°C° 0 mm 1 mps 737 mmHg 80%
    10:00 +14°C° 0 mm 1 mps 737 mmHg 75%
    11:00 +14°C° 0.1 mm 1 mps 737 mmHg 74%
    12:00 +14°C° 0.1 mm 1 mps 737 mmHg 72%
    13:00 +15°C° 0.1 mm 1 mps 736 mmHg 70%
    14:00 +14°C° 0.1 mm 1 mps 736 mmHg 75%
    15:00 +13°C° 0.1 mm 1 mps 736 mmHg 80%
    16:00 +12°C° 0.1 mm 1 mps 736 mmHg 84%
    17:00 +12°C° 0 mm 1 mps 736 mmHg 86%
    18:00 +10°C° 0 mm 0 mps 736 mmHg 88%
    19:00 +10°C° 0 mm 0 mps 736 mmHg 89%
    20:00 +10°C° 0 mm 0 mps 736 mmHg 89%
    21:00 +10°C° 0 mm 1 mps 736 mmHg 89%
    22:00 +10°C° 0 mm 1 mps 736 mmHg 90%
    23:00 +10°C° 0 mm 1 mps 736 mmHg 89%

    9 Diciembre, Lunes

    Tiempo Temperatura Precipitaciones Viento Presión Humedad
    00:00 +10°C° 0 mm 1 mps 736 mmHg 88%
    01:00 +9°C° 0 mm 1 mps 736 mmHg 88%
    02:00 +9°C° 0 mm 1 mps 735 mmHg 87%
    03:00 +9°C° 0 mm 1 mps 735 mmHg 86%
    04:00 +9°C° 0 mm 1 mps 735 mmHg 85%
    05:00 +9°C° 0 mm 1 mps 735 mmHg 84%
    06:00 +9°C° 0 mm 1 mps 735 mmHg 83%
    07:00 +8°C° 0 mm 1 mps 735 mmHg 82%
    08:00 +10°C° 0 mm 1 mps 735 mmHg 77%
    09:00 +12°C° 0 mm 1 mps 734 mmHg 73%
    10:00 +13°C° 0 mm 1 mps 734 mmHg 68%
    11:00 +14°C° 0 mm 2 mps 734 mmHg 67%
    12:00 +14°C° 0 mm 2 mps 733 mmHg 66%
    13:00 +14°C° 0 mm 2 mps 733 mmHg 64%
    14:00 +14°C° 0 mm 2 mps 732 mmHg 70%
    15:00 +13°C° 0 mm 1 mps 732 mmHg 75%
    16:00 +12°C° 0 mm 1 mps 732 mmHg 81%
    17:00 +12°C° 0.1 mm 1 mps 732 mmHg 81%
    18:00 +12°C° 0.1 mm 2 mps 731 mmHg 82%
    19:00 +10°C° 0.1 mm 2 mps 731 mmHg 82%
    20:00 +12°C° 0.1 mm 2 mps 731 mmHg 81%
    21:00 +12°C° 0.1 mm 2 mps 731 mmHg 80%
    22:00 +12°C° 0.1 mm 2 mps 731 mmHg 78%
    23:00 +10°C° 0.4 mm 2 mps 731 mmHg 82%

    10 Diciembre, Martes

    Tiempo Temperatura Precipitaciones Viento Presión Humedad
    00:00 +10°C° 0.4 mm 2 mps 730 mmHg 86%
    01:00 +10°C° 0.4 mm 3 mps 730 mmHg 90%
    02:00 +9°C° 0.5 mm 3 mps 730 mmHg 90%
    03:00 +9°C° 0.5 mm 3 mps 729 mmHg 90%
    04:00 +9°C° 0.5 mm 3 mps 729 mmHg 90%
    05:00 +9°C° 0.6 mm 2 mps 729 mmHg 90%
    06:00 +9°C° 0.6 mm 2 mps 729 mmHg 89%
    07:00 +9°C° 0.6 mm 2 mps 729 mmHg 88%
    08:00 +9°C° 1.1 mm 2 mps 728 mmHg 88%
    09:00 +9°C° 1.1 mm 2 mps 728 mmHg 87%
    10:00 +10°C° 1.1 mm 2 mps 728 mmHg 87%
    11:00 +9°C° 1.1 mm 2 mps 728 mmHg 87%
    12:00 +9°C° 1.1 mm 2 mps 728 mmHg 86%
    13:00 +9°C° 1.1 mm 2 mps 727 mmHg 86%
    14:00 +9°C° 0.4 mm 2 mps 727 mmHg 87%
    15:00 +9°C° 0.4 mm 2 mps 727 mmHg 87%
    16:00 +9°C° 0.4 mm 1 mps 727 mmHg 87%
    17:00 +9°C° 0.1 mm 1 mps 728 mmHg 87%
    18:00 +8°C° 0.1 mm 2 mps 728 mmHg 87%
    19:00 +8°C° 0.1 mm 2 mps 728 mmHg 87%
    20:00 +7°C° 0 mm 2 mps 729 mmHg 87%
    21:00 +7°C° 0 mm 2 mps 729 mmHg 87%
    22:00 +7°C° 0 mm 3 mps 730 mmHg 87%
    23:00 +7°C° 0 mm 3 mps 730 mmHg 84%

    11 Diciembre, Miércoles

    Tiempo Temperatura Precipitaciones Viento Presión Humedad
    00:00 +5°C° 0 mm 3 mps 730 mmHg 81%
    01:00 +5°C° 0 mm 3 mps 730 mmHg 78%
    02:00 +5°C° 0 mm 3 mps 730 mmHg 78%
    03:00 +5°C° 0 mm 3 mps 730 mmHg 77%
    04:00 +4°C° 0 mm 3 mps 731 mmHg 76%
    05:00 +4°C° 0 mm 3 mps 731 mmHg 76%
    06:00 +4°C° 0 mm 3 mps 732 mmHg 76%
    07:00 +3°C° 0 mm 3 mps 732 mmHg 76%
    08:00 +4°C° 0 mm 3 mps 733 mmHg 73%
    09:00 +5°C° 0 mm 3 mps 733 mmHg 70%
    10:00 +8°C° 0 mm 3 mps 734 mmHg 66%
    11:00 +8°C° 0 mm 3 mps 733 mmHg 65%
    12:00 +9°C° 0 mm 3 mps 733 mmHg 63%
    13:00 +10°C° 0 mm 2 mps 733 mmHg 62%
    14:00 +9°C° 0 mm 2 mps 733 mmHg 66%
    15:00 +9°C° 0 mm 2 mps 733 mmHg 70%
    16:00 +8°C° 0 mm 2 mps 734 mmHg 74%
    17:00 +7°C° 0 mm 2 mps 734 mmHg 75%
    18:00 +7°C° 0 mm 2 mps 734 mmHg 76%
    19:00 +6°C° 0 mm 2 mps 734 mmHg 77%
    20:00 +6°C° 0 mm 2 mps 734 mmHg 77%
    21:00 +6°C° 0 mm 2 mps 734 mmHg 77%
    22:00 +7°C° 0 mm 1 mps 734 mmHg 78%
    23:00 +7°C° 0 mm 1 mps 734 mmHg 77%
    Mostrar más